Weather History for KMXF - December, 2012

Change the Weather History Date:

Sunday, December 9, 2012

  Actual Average Record
Temperature  
Mean Temperature 64 °F -  
Max Temperature 74 °F 59 °F 74 °F (2012)
Min Temperature 55 °F 41 °F 20 °F (2010)
Growing Degree Days 14 (Base 50)    
Moisture  
Dew Point 60 °F    
Average Humidity 88    
Maximum Humidity 100    
Minimum Humidity 52    
Precipitation  
Precipitation 0.00 in - - ()
Sea Level Pressure  
Sea Level Pressure 30.03 in    
Wind  
Wind Speed 2 mph (South)    
Max Wind Speed 10 mph    
Max Gust Speed -    
Visibility 6 miles    
Events Fog    
Averages and records for this station are not official NWS values.
T = Trace of Precipitation, MM = Missing Value Source: NWS Daily Summary

Daily Weather History Graph

Daily Weather History Graph

Search for Another Location

Airport or City:

Trip Planner

Search our weather history database for the weather conditions in past years. The results will help you decide how hot, cold, wet, or windy it might be!

Date:

Astronomy

Dec. 09, 2012 Rise Set
Actual Time 6:35 AM CST 4:40 PM CST
Civil Twilight 6:08 AM CST 5:07 PM CST
Nautical Twilight 5:38 AM CST 5:38 PM CST
Astronomical Twilight 5:08 AM CST 6:07 PM CST
Moon 2:18 AM CST (12/9) 1:38 PM CST (12/9)
Length of Visible Light 10h 58m
Length of Day
10h 04m
Waning Crescent, 18% of the Moon is Illuminated
Dec 9
Waning Crescent
Dec 13
New
Dec 19
First Quarter
Dec 28
Full
Jan 4
Last Quarter

Hourly Weather History & Observations

Time (CST) Temp. Dew Point Humidity Pressure Visibility Wind Dir Wind Speed Gust Speed Precip Events Conditions
12:04 AM 55.4 °F 55.4 °F 100% 30.02 in 0.2 mi Calm Calm - N/A Fog Fog
12:14 AM 55.4 °F 55.4 °F 100% 30.02 in 0.2 mi Calm Calm - N/A Fog Fog
12:23 AM 55.4 °F 55.4 °F 100% 30.02 in 0.2 mi Calm Calm - N/A Fog Fog
12:27 AM 57.2 °F 55.4 °F 94% 30.02 in 0.2 mi Calm Calm - N/A Fog Fog
12:28 AM 57.2 °F 55.4 °F 94% 30.02 in 0.5 mi Calm Calm - N/A Fog Fog
12:30 AM 57.2 °F 55.4 °F 94% 30.02 in 0.8 mi Calm Calm - N/A   Mostly Cloudy
12:35 AM 59.0 °F 57.2 °F 94% 30.02 in 4.0 mi Calm Calm - N/A   Mostly Cloudy
12:47 AM 59.0 °F 59.0 °F 100% 30.01 in 2.5 mi Calm Calm - N/A   Overcast
12:53 AM 60.8 °F 59.0 °F 94% 30.01 in 1.0 mi Calm Calm - N/A   Mist
12:55 AM 60.1 °F 59.9 °F 99% 30.01 in 0.8 mi Calm Calm - N/A   Mist
12:57 AM 60.8 °F 60.8 °F 100% 30.01 in 0.8 mi Calm Calm - N/A   Mist
12:58 AM 60.8 °F 60.8 °F 100% 30.01 in 0.5 mi Calm Calm - N/A Fog Fog
1:01 AM 60.8 °F 60.8 °F 100% 30.01 in 0.5 mi Calm Calm - N/A Fog Fog
1:02 AM 60.8 °F 60.8 °F 100% 30.02 in 0.5 mi Calm Calm - N/A Fog Fog
1:55 AM 61.3 °F 61.0 °F 99% 30.01 in 0.5 mi Calm Calm - N/A Fog Fog
2:39 AM 62.6 °F 60.8 °F 94% 30.01 in 0.5 mi SSE 3.5 mph - N/A Fog Fog
2:42 AM 62.6 °F 60.8 °F 94% 30.01 in 0.8 mi Calm Calm - N/A   Mist
2:45 AM 62.6 °F 60.8 °F 94% 30.01 in 0.8 mi Calm Calm - N/A   Mist
2:47 AM 62.6 °F 60.8 °F 94% 30.01 in 1.2 mi South 3.5 mph - N/A   Overcast
2:48 AM 62.6 °F 60.8 °F 94% 30.01 in 1.2 mi South 4.6 mph - N/A   Overcast
2:51 AM 62.6 °F 60.8 °F 94% 30.01 in 2.0 mi Calm Calm - N/A   Overcast
2:54 AM 62.6 °F 60.8 °F 94% 30.01 in 3.0 mi Calm Calm - N/A   Overcast
2:55 AM 61.9 °F 61.5 °F 99% 30.01 in 3.0 mi Calm Calm - N/A   Overcast
2:57 AM 62.6 °F 60.8 °F 94% 30.01 in 4.0 mi Calm Calm - N/A   Overcast
3:12 AM 60.8 °F 60.8 °F 100% 30.01 in 9.0 mi South 3.5 mph - N/A   Overcast
3:34 AM 60.8 °F 60.8 °F 100% 30.02 in 9.0 mi Calm Calm - N/A   Overcast
3:55 AM 61.3 °F 61.2 °F 99% 30.02 in 9.0 mi Calm Calm - N/A   Overcast
4:39 AM 60.8 °F 60.8 °F 100% 30.03 in 8.0 mi Calm Calm - N/A   Overcast
4:55 AM 60.8 °F 60.6 °F 99% 30.04 in 9.0 mi Calm Calm - N/A   Overcast
5:41 AM 60.8 °F 60.8 °F 100% 30.05 in 9.0 mi Calm Calm - N/A   Overcast
5:55 AM 60.3 °F 60.1 °F 99% 30.06 in 10.0 mi Calm Calm - N/A   Overcast
6:41 AM 60.8 °F 60.8 °F 100% 30.07 in 10.0 mi Calm Calm - N/A   Overcast
6:55 AM 59.7 °F 59.5 °F 99% 30.07 in 10.0 mi Calm Calm - N/A   Overcast
7:49 AM 60.8 °F 60.8 °F 100% 30.08 in 9.0 mi Calm Calm - N/A   Mostly Cloudy
7:55 AM 61.5 °F 61.2 °F 99% 30.09 in 10.0 mi Calm Calm - N/A   Mostly Cloudy
8:04 AM 62.6 °F 60.8 °F 94% 30.09 in 10.0 mi South 3.5 mph - N/A   Mostly Cloudy
8:14 AM 62.6 °F 60.8 °F 94% 30.09 in 10.0 mi South 3.5 mph - N/A   Overcast
8:38 AM 62.6 °F 62.6 °F 100% 30.09 in 10.0 mi South 5.8 mph - N/A   Overcast
8:55 AM 63.9 °F 63.3 °F 98% 30.09 in 10.0 mi SSE 6.9 mph - N/A   Scattered Clouds
9:08 AM 66.2 °F 62.6 °F 88% 30.09 in 10.0 mi South 4.6 mph - N/A   Mostly Cloudy
9:14 AM 66.2 °F 62.6 °F 88% 30.09 in 10.0 mi South 5.8 mph - N/A   Mostly Cloudy
9:17 AM 66.2 °F 60.8 °F 83% 30.09 in 10.0 mi South 6.9 mph - N/A   Mostly Cloudy
9:22 AM 66.2 °F 60.8 °F 83% 30.09 in 10.0 mi South 6.9 mph - N/A   Scattered Clouds
9:55 AM 69.4 °F 60.4 °F 73% 30.09 in 10.0 mi SSE 5.8 mph - N/A   Scattered Clouds
10:00 AM 69.8 °F 60.8 °F 73% 30.09 in 10.0 mi South 6.9 mph - N/A   Mostly Cloudy
10:12 AM 69.8 °F 60.8 °F 73% 30.09 in 10.0 mi Variable 3.5 mph - N/A   Mostly Cloudy
10:21 AM 69.8 °F 60.8 °F 73% 30.08 in 10.0 mi SSW 3.5 mph - N/A   Scattered Clouds
10:24 AM 69.8 °F 60.8 °F 73% 30.08 in 10.0 mi SSW 4.6 mph - N/A   Mostly Cloudy
10:55 AM 71.1 °F 59.0 °F 66% 30.06 in 10.0 mi SSW 8.1 mph - N/A   Mostly Cloudy
11:01 AM 71.6 °F 59.0 °F 64% 30.06 in 10.0 mi South 6.9 mph - N/A   Mostly Cloudy
11:55 AM 72.1 °F 57.2 °F 59% 30.03 in 10.0 mi South 9.2 mph - N/A   Partly Cloudy
12:55 PM 73.8 °F 56.1 °F 54% 30.01 in 10.0 mi South 10.4 mph - N/A   Mostly Cloudy
1:55 PM 74.5 °F 55.8 °F 52% 29.99 in 10.0 mi SSW 4.6 mph - N/A   Partly Cloudy
2:55 PM 73.4 °F 55.2 °F 53% 29.99 in 10.0 mi South 8.1 mph - N/A   Clear
3:55 PM 72.1 °F 55.9 °F 57% 29.99 in 10.0 mi SSW 4.6 mph - N/A   Clear
4:55 PM 67.8 °F 55.6 °F 65% 29.98 in 10.0 mi SE 5.8 mph - N/A   Clear
5:55 PM 63.7 °F 55.4 °F 74% 29.98 in 10.0 mi SSE 4.6 mph - N/A   Clear
6:55 PM 64.0 °F 56.7 °F 77% 29.98 in 10.0 mi SSE 6.9 mph - N/A   Partly Cloudy
7:55 PM 64.4 °F 57.2 °F 77% 29.97 in 10.0 mi SSE 5.8 mph - N/A   Partly Cloudy
8:55 PM 66.4 °F 57.7 °F 74% 29.97 in 10.0 mi SSE 6.9 mph - N/A   Overcast
9:55 PM 66.7 °F 59.9 °F 79% 29.96 in 10.0 mi South 8.1 mph - N/A   Overcast
10:55 PM 67.1 °F 61.9 °F 83% 29.95 in 10.0 mi South 9.2 mph - N/A   Mostly Cloudy
11:55 PM 66.6 °F 62.1 °F 85% 29.94 in 10.0 mi South 6.9 mph - N/A   Scattered Clouds